User: anonymous   Login
Location: Plum
(40.5000°N, 79.7500°W)
Time: 00:06:00
(UTC-04:00)
Language:

MOZ.5/SAFIR/RUBIN 5/SL-8 - Orbit

View from above orbital plane
View from above orbital plane
View from above satellite
View from above satellite

Ground track
Ground track

The orbit data is extracted from the following two-line orbital elements,

1 28898U 05043G   18170.40445899 +.00000091 +00000-0 +28093-4 0  9993
2 28898 097.9788 310.3154 0021089 113.5388 246.8031 14.60281069296795
Epoch (UTC): 19 June 2018 09:42:25
Eccentricity: 0.0021089
inclination: 97.9788°
perigee height: 677 km
apogee height: 707 km
right ascension of ascending node: 310.3154°
argument of perigee: 113.5388°
revolutions per day: 14.60281069
mean anomaly at epoch: 246.8031°
orbit number at epoch: 29679

The dashed part of the orbit path shows where the satellite is in the earth's shadow,  

DLR